FW2048 Weather Reports


time (UTC)temp
C
wind
direction
speed
KPH
gust
KPH
rain 1hr
cm
rain 24hr
cm
rain mn
cm
humidity
%
barometer
mb
20260504081556 15 0 0.0 0.0 0.00 0.00 0.00 72 1005.5
20260504044542 16 0 0.0 0.0 0.00 0.00 0.00 71 1007.0
20260504043053 16 0 0.0 0.0 0.00 0.00 0.00 72 1007.2
20260504041543 14 0 0.0 0.0 0.00 0.00 0.00 77 1007.4
20260504040042 13 0 0.0 0.0 0.00 0.00 0.00 78 1007.6
20260504034544 13 0 0.0 0.0 0.00 0.00 0.00 79 1007.7
20260504033045 14 0 0.0 0.0 0.00 0.00 0.00 76 1007.7
20260504031544 15 0 0.0 0.0 0.00 0.00 0.00 75 1007.9
20260504030041 15 0 0.0 0.0 0.00 0.00 0.00 74 1007.8
20260504024546 16 0 0.0 0.0 0.00 0.00 0.00 71 1007.7
20260504023046 16 0 0.0 0.0 0.00 0.00 0.00 70 1007.6
20260504021549 16 0 0.0 0.0 0.00 0.00 0.00 72 1007.4
20260504020044 16 0 0.0 0.0 0.00 0.00 0.00 70 1007.4
20260504014544 17 0 0.0 0.0 0.00 0.00 0.00 69 1007.4
20260504013055 17 0 0.0 0.0 0.00 0.00 0.00 65 1007.2
20260504011539 18 0 0.0 0.0 0.00 0.00 0.00 62 1007.1
20260504010041 18 0 0.0 0.0 0.00 0.00 0.00 60 1007.0
20260504004538 19 0 0.0 0.0 0.00 0.00 0.00 60 1007.0
20260504003037 20 0 0.0 0.0 0.00 0.00 0.00 55 1007.0
20260504001547 21 0 0.0 0.0 0.00 0.00 0.00 53 1007.0
20260504000043 22 0 0.0 0.0 0.00 0.00 0.00 52 1007.0
20260503234540 22 0 0.0 0.0 0.00 0.00 0.00 48 1007.0
20260503233045 23 0 0.0 0.0 0.00 0.00 0.00 48 1006.9
20260503231537 23 0 0.0 0.0 0.00 0.00 0.00 45 1007.2
20260503230045 23 0 0.0 0.0 0.00 0.00 0.00 43 1007.4
20260503224544 24 0 0.0 0.0 0.00 0.00 0.00 43 1007.7
20260503223042 24 0 0.0 0.0 0.00 0.00 0.00 44 1007.9
20260503221551 24 0 0.0 0.0 0.00 0.00 0.00 41 1008.0
20260503220038 23 0 0.0 0.0 0.00 0.00 0.00 43 1008.2
20260503214541 24 0 0.0 0.0 0.00 0.00 0.00 43 1008.3
20260503213045 23 0 0.0 0.0 0.00 0.00 0.00 41 1008.7
20260503211543 24 0 0.0 0.0 0.00 0.00 0.00 42 1008.7
20260503210040 23 0 0.0 0.0 0.00 0.00 0.00 42 1009.0
20260503204543 23 0 0.0 0.0 0.00 0.00 0.00 43 1009.1
20260503203047 23 0 0.0 0.0 0.00 0.00 0.00 43 1009.6
20260503201546 23 0 0.0 0.0 0.00 0.00 0.00 42 1010.0
20260503200044 23 0 0.0 0.0 0.00 0.00 0.00 42 1010.3
20260503194545 23 0 0.0 0.0 0.00 0.00 0.00 43 1010.6
20260503193046 22 0 0.0 0.0 0.00 0.00 0.00 41 1010.8
20260503191604 22 0 0.0 0.0 0.00 0.00 0.00 41 1011.1
20260503190038 22 0 0.0 0.0 0.00 0.00 0.00 40 1011.3
20260503184538 22 0 0.0 0.0 0.00 0.00 0.00 43 1011.5
20260503183038 21 0 0.0 0.0 0.00 0.00 0.00 41 1011.7
20260503181549 21 0 0.0 0.0 0.00 0.00 0.00 42 1011.9
20260503180054 21 0 0.0 0.0 0.00 0.00 0.00 43 1012.2
20260503174547 20 0 0.0 0.0 0.00 0.00 0.00 44 1012.5
20260503173040 20 0 0.0 0.0 0.00 0.00 0.00 38 1012.7
20260503171539 20 0 0.0 0.0 0.00 0.00 0.00 43 1012.9